Regional Weather Roundup
Issued by NWS

Home | Current Version | Previous Version | Text Only | Print | Product List | Glossary On
Versions: 1 2 3 4 5 6 7 8 9 10 11 12 13 14 15 16 17 18 19 20 21 22 23 24 25 26 27 28
000
ASCA42 TJSJ 242110
RWRPR
PUERTO RICO/U.S. VIRGIN ISLANDS HOURLY WEATHER ROUNDUP
NATIONAL WEATHER SERVICE SAN JUAN PR
500 PM AST TUE JAN 24 2017

PRZ001>002-007>008-010-242200-
PUERTO RICO

CITY           SKY/WX    TMP DP  RH WIND       PRES   REMARKS
SAN JUAN LMM   MOSUNNY   88  64  45 S12G18    29.89R
AGUADILLA      PTSUNNY   81  70  69 SW14G21   29.91R
CEIBA          SUNNY     82  73  74 S20       29.93R
$$

VIZ001>002-242200-
U.S. VIRGIN ISLANDS

CITY           SKY/WX    TMP DP  RH WIND       PRES   REMARKS
CHARLOTTE AMA  SUNNY     81  73  78 S10       29.92R
CHRISTIANSTED  MOSUNNY   82  73  74 S8        29.94R
$$

HOURLY WEATHER ROUNDUP FOR THE NEWS MEDIA

CITY           SKY/WX    TMP DP  RH WIND       PRES   REMARKS
ORLANDO        SUNNY     73  43  33 W14       29.86R
NEW YORK       LGT RAIN  38  35  89 NW24      29.33R FOG     WCI  27
NEWARK         LGT RAIN  39  36  89 NW10      29.36R FOG     WCI  32
CHICAGO        CLOUDY    36  31  82 S5        29.85R WCI  32
HARTFORD       CLOUDY    46  43  89 N12G25    29.19F
BOSTON         DRIZZLE   38  38 100 N23G32    29.29S FOG     WCI  27
DALLAS         CLOUDY    80  49  33 S15       29.58F
PHILADELPHIA   CLOUDY    43  32  65 NW16      29.44R
LOS ANGELES    PTSUNNY   53  41  63 W8        30.02F
WASHINGTON DC  CLOUDY    47  36  65 NW14      29.56R



USA.gov is the U.S. government's official web portal to all federal, state and local government web resources and services.